This demonstration page uses our WeatherBlox Daily Observations layout. Learn more.

41.55636, -103.73856

Hourly Observations for July 10, 2019

Temp ( °F °C ) Dew Point ( °F °C ) Humidity (%) Winds ( mph kmh ) Pressure ( in mb ) Visibility ( mi km ) Precip ( " mm )
12:58 am 00:58 Partly Cloudy 71 21.5 49 9.5 46 46 NE 9 15 30.01 1016 10 16.0934 0 0
1:58 am 01:58 Mostly Cloudy 67 19.2 53 11.5 61 61 NE 13 20 30.03 1017 10 16.0934 0 0
2:58 am 02:58 Mostly Cloudy 64 18 54 12.2 69 69 NE 7 11 30.09 1019 10 16.0934 0 0
3:58 am 03:58 Mostly Cloudy 62 16.7 52 11.1 70 70 NNE 18 30 30.13 1020 10 16.0934 0 0
4:58 am 04:58 Clear 58 14.4 50 10.1 76 76 N 8 13 30.16 1021 10 16.0934 0 0
5:58 am 05:58 Clear 56 13.1 49 9.5 79 79 N 9 15 30.16 1021 10 16.0934 0 0
6:58 am 06:58 Clear 56 13.2 49 9.4 78 78 NNE 6 9 30.17 1022 10 16.0934 0 0
7:58 am 07:58 Clear 53 11.6 48 8.9 84 84 N 7 11 30.19 1022 10 16.0934 0 0
8:58 am 08:58 Clear 50 10 46 7.5 85 85 NNW 9 15 30.19 1022 10 16.0934 0 0
9:58 am 09:58 Clear 49 9.5 45 7.2 86 86 WNW 7 11 30.22 1023 10 16.0934 0 0
10:58 am 10:58 Clear 48 8.9 45 7.4 90 90 WNW 3 6 30.23 1024 10 16.0934 0 0
11:58 am 11:58 Sunny 49 9.7 46 8 89 89 WNW 12 19 30.24 1024 10 16.0934 0 0
12:58 pm 12:58 Sunny 55 12.6 46 7.9 73 73 NNW 10 17 30.24 1024 10 16.0934 0 0
1:58 pm 13:58 Mostly Sunny 60 15.6 47 8.2 62 62 WNW 7 11 30.25 1024 10 16.0934 0 0
2:58 pm 14:58 Sunny 63 17.4 46 7.6 53 53 NW 7 11 30.26 1025 10 16.0934 0 0
3:58 pm 15:58 Sunny 65 18.4 49 9.3 56 56 NNE 5 7 30.27 1025 10 16.0934 0 0
4:58 pm 16:58 Sunny 67 19.3 48 8.8 51 51 Calm 30.28 1025 10 16.0934 0 0
5:58 pm 17:58 Sunny 69 20.3 49 9.5 50 50 Calm 30.27 1025 10 16.0934 0 0
6:58 pm 18:58 Sunny 71 21.4 48 9 45 45 SSE 3 6 30.26 1025 10 16.0934 0 0
8:58 pm 20:58 Sunny 73 23 51 10.7 46 46 SE 5 7 30.23 1024 10 16.0934 0 0
10:56 pm 22:56 Sunny 76 24.3 55 12.5 48 48 S 6 9 30.21 1023 10 16.0934 0 0
11:58 pm 23:58 Sunny 75 24.1 55 12.5 48 48 SSE 9 15 30.19 1022 10 16.0934 0 0

Powered by AerisWeather